Time,TemperatureF,DewpointF,PressureIn,WindDirection,WindDirectionDegrees,WindSpeedMPH,WindSpeedGustMPH,Humidity,HourlyPrecipIn,Conditions,Clouds,dailyrainin,SolarRadiationWatts/m^2,SoftwareType,DateUTC
2013-02-05 00:04:00,22.5,9.0,30.01,WNW,296,4.0,13.0,56,0.00,,,0.00,0,weatherlink.com 1.10,2013-02-05 05:04:00,
2013-02-05 00:19:00,22.7,9.0,30.01,WNW,287,3.0,10.0,57,0.00,,,0.00,0,weatherlink.com 1.10,2013-02-05 05:19:00,
2013-02-05 00:34:00,22.7,9.0,30.02,WSW,239,5.0,15.0,56,0.00,,,0.00,0,weatherlink.com 1.10,2013-02-05 05:34:00,
2013-02-05 00:49:00,22.8,10.0,30.02,West,264,5.0,12.0,57,0.00,,,0.00,0,weatherlink.com 1.10,2013-02-05 05:49:00,
2013-02-05 01:04:00,22.7,9.0,30.02,WNW,300,5.0,12.0,56,0.00,,,0.00,0,weatherlink.com 1.10,2013-02-05 06:04:00,
2013-02-05 01:19:00,22.8,9.0,30.03,WSW,252,5.0,10.0,56,0.00,,,0.00,0,weatherlink.com 1.10,2013-02-05 06:19:00,
2013-02-05 01:34:00,22.8,10.0,30.04,SW,225,8.0,10.0,57,0.00,,,0.00,0,weatherlink.com 1.10,2013-02-05 06:34:00,
2013-02-05 01:49:00,22.9,10.0,30.04,WSW,240,6.0,11.0,57,0.00,,,0.00,0,weatherlink.com 1.10,2013-02-05 06:49:00,
2013-02-05 02:04:00,23.0,10.0,30.04,West,263,4.0,11.0,57,0.00,,,0.00,0,weatherlink.com 1.10,2013-02-05 07:04:00,
2013-02-05 02:19:00,23.0,10.0,30.03,WNW,289,5.0,12.0,57,0.00,,,0.00,0,weatherlink.com 1.10,2013-02-05 07:19:00,
2013-02-05 02:34:00,23.0,9.0,30.03,NW,311,7.0,12.0,56,0.00,,,0.00,0,weatherlink.com 1.10,2013-02-05 07:34:00,
2013-02-05 02:49:00,23.0,9.0,30.03,WSW,247,5.0,7.0,56,0.00,,,0.00,0,weatherlink.com 1.10,2013-02-05 07:49:00,
2013-02-05 03:04:00,23.1,9.0,30.03,West,275,4.0,7.0,56,0.00,,,0.00,0,weatherlink.com 1.10,2013-02-05 08:04:00,
2013-02-05 03:19:00,23.2,9.0,30.04,WNW,302,3.0,9.0,55,0.00,,,0.00,0,weatherlink.com 1.10,2013-02-05 08:19:00,
2013-02-05 03:34:00,23.3,9.0,30.04,West,272,3.0,8.0,55,0.00,,,0.00,0,weatherlink.com 1.10,2013-02-05 08:34:00,
2013-02-05 03:50:00,23.2,9.0,30.04,WSW,249,4.0,12.0,55,0.00,,,0.00,0,weatherlink.com 1.10,2013-02-05 08:50:00,
2013-02-05 04:05:00,23.2,9.0,30.04,WNW,286,4.0,8.0,56,0.00,,,0.00,0,weatherlink.com 1.10,2013-02-05 09:05:00,
2013-02-05 04:20:00,23.2,9.0,30.04,WNW,303,3.0,6.0,56,0.00,,,0.00,0,weatherlink.com 1.10,2013-02-05 09:20:00,
2013-02-05 04:35:00,23.5,10.0,30.04,WNW,283,3.0,5.0,57,0.00,,,0.00,0,weatherlink.com 1.10,2013-02-05 09:35:00,
2013-02-05 04:50:00,23.3,10.0,30.04,WSW,247,4.0,5.0,57,0.00,,,0.00,0,weatherlink.com 1.10,2013-02-05 09:50:00,
2013-02-05 05:05:00,23.3,10.0,30.04,West,267,2.0,5.0,57,0.00,,,0.00,0,weatherlink.com 1.10,2013-02-05 10:05:00,
2013-02-05 05:20:00,23.3,10.0,30.04,WNW,298,3.0,6.0,57,0.00,,,0.00,0,weatherlink.com 1.10,2013-02-05 10:20:00,
2013-02-05 05:35:00,23.4,10.0,30.04,West,274,4.0,8.0,57,0.00,,,0.00,0,weatherlink.com 1.10,2013-02-05 10:35:00,
2013-02-05 05:50:00,23.4,10.0,30.04,West,268,1.0,6.0,57,0.00,,,0.00,0,weatherlink.com 1.10,2013-02-05 10:50:00,
2013-02-05 06:05:00,23.5,11.0,30.05,SW,234,1.0,6.0,58,0.00,,,0.00,0,weatherlink.com 1.10,2013-02-05 11:05:00,
2013-02-05 06:20:00,23.6,11.0,30.05,SW,234,2.0,8.0,58,0.00,,,0.00,0,weatherlink.com 1.10,2013-02-05 11:20:00,
2013-02-05 06:35:00,23.8,11.0,30.05,WSW,257,2.0,4.0,59,0.00,,,0.00,0,weatherlink.com 1.10,2013-02-05 11:35:00,
2013-02-05 06:50:00,23.9,11.0,30.06,SW,236,2.0,6.0,58,0.00,,,0.00,0,weatherlink.com 1.10,2013-02-05 11:50:00,
2013-02-05 07:05:00,24.0,11.0,30.06,WSW,242,3.0,7.0,58,0.00,,,0.00,5,weatherlink.com 1.10,2013-02-05 12:05:00,
2013-02-05 07:20:00,24.2,12.0,30.06,WNW,290,2.0,6.0,59,0.00,,,0.00,11,weatherlink.com 1.10,2013-02-05 12:20:00,
2013-02-05 07:35:00,24.1,11.0,30.07,WNW,293,3.0,5.0,58,0.00,,,0.00,25,weatherlink.com 1.10,2013-02-05 12:35:00,
2013-02-05 07:50:00,24.3,11.0,30.08,WSW,254,2.0,6.0,58,0.00,,,0.00,46,weatherlink.com 1.10,2013-02-05 12:50:00,
2013-02-05 08:05:00,24.4,11.0,30.09,NW,309,1.0,6.0,58,0.00,,,0.00,44,weatherlink.com 1.10,2013-02-05 13:05:00,
2013-02-05 08:20:00,24.9,13.0,30.09,WNW,287,2.0,5.0,60,0.00,,,0.00,65,weatherlink.com 1.10,2013-02-05 13:20:00,
2013-02-05 08:35:00,24.8,11.0,30.09,West,273,2.0,6.0,56,0.00,,,0.00,76,weatherlink.com 1.10,2013-02-05 13:35:00,
2013-02-05 08:50:00,24.9,11.0,30.09,West,278,2.0,5.0,55,0.00,,,0.00,116,weatherlink.com 1.10,2013-02-05 13:50:00,
2013-02-05 09:05:00,25.1,10.0,30.09,North,355,4.0,7.0,54,0.00,,,0.00,105,weatherlink.com 1.10,2013-02-05 14:05:00,
2013-02-05 09:20:00,25.2,10.0,30.09,NW,322,3.0,6.0,53,0.00,,,0.00,116,weatherlink.com 1.10,2013-02-05 14:20:00,
2013-02-05 09:35:00,25.3,10.0,30.09,West,275,3.0,6.0,53,0.00,,,0.00,123,weatherlink.com 1.10,2013-02-05 14:35:00,
2013-02-05 09:50:00,25.5,10.0,30.09,NW,309,2.0,7.0,52,0.00,,,0.00,121,weatherlink.com 1.10,2013-02-05 14:50:00,
2013-02-05 10:05:00,25.6,10.0,30.10,WNW,299,1.0,7.0,52,0.00,,,0.00,179,weatherlink.com 1.10,2013-02-05 15:05:00,
2013-02-05 10:20:00,25.6,10.0,30.09,WSW,246,3.0,7.0,51,0.00,,,0.00,211,weatherlink.com 1.10,2013-02-05 15:20:00,
2013-02-05 10:35:00,26.1,9.0,30.10,NW,313,5.0,6.0,49,0.00,,,0.00,223,weatherlink.com 1.10,2013-02-05 15:35:00,
2013-02-05 10:50:00,26.1,10.0,30.09,NW,311,3.0,9.0,50,0.00,,,0.00,211,weatherlink.com 1.10,2013-02-05 15:50:00,
2013-02-05 11:05:00,26.7,10.0,30.09,NNW,341,0.0,4.0,49,0.00,,,0.00,200,weatherlink.com 1.10,2013-02-05 16:05:00,
2013-02-05 11:20:00,27.3,11.0,30.09,West,276,1.0,4.0,50,0.00,,,0.00,288,weatherlink.com 1.10,2013-02-05 16:20:00,
2013-02-05 11:35:00,27.7,10.0,30.08,North,10,1.0,4.0,48,0.00,,,0.00,262,weatherlink.com 1.10,2013-02-05 16:35:00,
2013-02-05 11:50:00,27.9,10.0,30.07,WSW,244,1.0,5.0,48,0.00,,,0.00,232,weatherlink.com 1.10,2013-02-05 16:50:00,
2013-02-05 12:05:00,28.5,10.0,30.07,SE,130,2.0,3.0,47,0.00,,,0.00,209,weatherlink.com 1.10,2013-02-05 17:05:00,
2013-02-05 12:20:00,28.5,11.0,30.06,SE,146,2.0,4.0,48,0.00,,,0.00,236,weatherlink.com 1.10,2013-02-05 17:20:00,
2013-02-05 12:35:00,28.0,10.0,30.06,SSW,202,4.0,6.0,48,0.00,,,0.00,221,weatherlink.com 1.10,2013-02-05 17:35:00,
2013-02-05 12:50:00,28.1,11.0,30.06,SW,234,1.0,4.0,49,0.00,,,0.00,218,weatherlink.com 1.10,2013-02-05 17:50:00,
2013-02-05 13:06:00,28.7,11.0,30.05,ESE,116,0.0,4.0,48,0.00,,,0.00,220,weatherlink.com 1.10,2013-02-05 18:06:00,
2013-02-05 13:21:00,28.5,11.0,30.05,SE,127,3.0,6.0,49,0.00,,,0.00,211,weatherlink.com 1.10,2013-02-05 18:21:00,
2013-02-05 13:36:00,28.7,12.0,30.04,NE,46,1.0,4.0,50,0.00,,,0.00,223,weatherlink.com 1.10,2013-02-05 18:36:00,
2013-02-05 14:06:00,29.3,13.0,30.05,SW,236,1.0,5.0,50,0.00,,,0.00,204,weatherlink.com 1.10,2013-02-05 19:06:00,
2013-02-05 14:21:00,29.3,13.0,30.05,SSE,168,2.0,9.0,50,0.00,,,0.00,213,weatherlink.com 1.10,2013-02-05 19:21:00,
2013-02-05 14:36:00,29.1,12.0,30.05,SE,128,4.0,7.0,50,0.00,,,0.00,181,weatherlink.com 1.10,2013-02-05 19:36:00,
2013-02-05 14:51:00,28.7,13.0,30.04,SE,130,4.0,9.0,53,0.00,,,0.00,155,weatherlink.com 1.10,2013-02-05 19:51:00,
2013-02-05 15:06:00,28.4,14.0,30.04,SE,132,6.0,10.0,55,0.00,,,0.00,125,weatherlink.com 1.10,2013-02-05 20:06:00,
2013-02-05 15:21:00,28.5,14.0,30.03,SSW,196,3.0,10.0,56,0.00,,,0.00,132,weatherlink.com 1.10,2013-02-05 20:21:00,
2013-02-05 15:36:00,28.6,15.0,30.02,SE,139,1.0,7.0,56,0.00,,,0.00,98,weatherlink.com 1.10,2013-02-05 20:36:00,
2013-02-05 15:51:00,28.8,15.0,30.02,ESE,115,1.0,8.0,57,0.00,,,0.00,56,weatherlink.com 1.10,2013-02-05 20:51:00,
2013-02-05 16:06:00,28.3,15.0,30.02,SE,133,4.0,8.0,58,0.00,,,0.00,60,weatherlink.com 1.10,2013-02-05 21:06:00,
2013-02-05 16:21:00,27.9,15.0,30.02,ESE,118,7.0,9.0,59,0.00,,,0.00,21,weatherlink.com 1.10,2013-02-05 21:21:00,
2013-02-05 16:36:00,27.9,16.0,30.02,SE,128,5.0,8.0,61,0.00,,,0.00,18,weatherlink.com 1.10,2013-02-05 21:36:00,
2013-02-05 16:51:00,27.9,16.0,30.02,SE,142,3.0,8.0,62,0.00,,,0.00,7,weatherlink.com 1.10,2013-02-05 21:51:00,
2013-02-05 17:06:00,28.0,17.0,30.03,ESE,119,3.0,9.0,63,0.00,,,0.00,0,weatherlink.com 1.10,2013-02-05 22:06:00,
2013-02-05 17:21:00,28.0,17.0,30.03,ESE,106,2.0,8.0,64,0.00,,,0.00,0,weatherlink.com 1.10,2013-02-05 22:21:00,
2013-02-05 17:36:00,28.0,17.0,30.02,ESE,118,4.0,7.0,63,0.00,,,0.00,0,weatherlink.com 1.10,2013-02-05 22:36:00,
2013-02-05 17:51:00,28.2,18.0,30.02,SE,140,3.0,7.0,65,0.00,,,0.00,0,weatherlink.com 1.10,2013-02-05 22:51:00,
2013-02-05 18:06:00,28.2,18.0,30.03,SSE,163,2.0,8.0,65,0.00,,,0.00,0,weatherlink.com 1.10,2013-02-05 23:06:00,
2013-02-05 18:21:00,28.3,19.0,30.03,SSE,158,0.0,8.0,67,0.00,,,0.00,0,weatherlink.com 1.10,2013-02-05 23:21:00,
2013-02-05 18:36:00,28.4,18.0,30.03,SSE,167,3.0,8.0,66,0.00,,,0.00,0,weatherlink.com 1.10,2013-02-05 23:36:00,
2013-02-05 18:51:00,28.2,19.0,30.03,ESE,118,4.0,8.0,68,0.00,,,0.00,0,weatherlink.com 1.10,2013-02-05 23:51:00,
2013-02-05 19:06:00,28.4,19.0,30.03,SE,144,3.0,8.0,68,0.00,,,0.00,0,weatherlink.com 1.10,2013-02-06 00:06:00,
2013-02-05 19:21:00,28.5,19.0,30.03,SSE,152,5.0,8.0,68,0.00,,,0.00,0,weatherlink.com 1.10,2013-02-06 00:21:00,
2013-02-05 19:36:00,28.2,20.0,30.03,South,187,3.0,8.0,72,0.00,,,0.00,0,weatherlink.com 1.10,2013-02-06 00:36:00,
2013-02-05 19:51:00,27.9,22.0,30.03,SE,131,2.0,6.0,77,0.00,,,0.00,0,weatherlink.com 1.10,2013-02-06 00:51:00,
2013-02-05 20:06:00,27.4,22.0,30.03,SE,144,1.0,7.0,81,0.00,,,0.00,0,weatherlink.com 1.10,2013-02-06 01:06:00,
2013-02-05 20:21:00,27.4,23.0,30.03,SW,233,2.0,3.0,84,0.00,,,0.00,0,weatherlink.com 1.10,2013-02-06 01:21:00,
2013-02-05 20:36:00,27.0,23.0,30.03,WSW,252,2.0,3.0,85,0.00,,,0.00,0,weatherlink.com 1.10,2013-02-06 01:36:00,
2013-02-05 20:51:00,26.8,24.0,30.03,SW,221,2.0,4.0,88,0.00,,,0.00,0,weatherlink.com 1.10,2013-02-06 01:51:00,
2013-02-05 21:06:00,26.8,24.0,30.03,WSW,254,1.0,2.0,89,0.00,,,0.00,0,weatherlink.com 1.10,2013-02-06 02:06:00,
2013-02-05 21:21:00,26.9,24.0,30.04,West,259,2.0,3.0,89,0.00,,,0.00,0,weatherlink.com 1.10,2013-02-06 02:21:00,
2013-02-05 21:36:00,26.6,24.0,30.03,West,259,2.0,2.0,89,0.00,,,0.00,0,weatherlink.com 1.10,2013-02-06 02:36:00,
2013-02-05 21:51:00,26.6,24.0,30.03,West,273,2.0,3.0,89,0.00,,,0.00,0,weatherlink.com 1.10,2013-02-06 02:51:00,
2013-02-05 22:06:00,26.6,24.0,30.03,West,274,1.0,2.0,89,0.00,,,0.00,0,weatherlink.com 1.10,2013-02-06 03:06:00,
2013-02-05 22:21:00,26.8,24.0,30.02,West,274,1.0,2.0,89,0.00,,,0.00,0,weatherlink.com 1.10,2013-02-06 03:21:00,
2013-02-05 22:36:00,27.1,24.0,30.02,West,274,2.0,2.0,89,0.00,,,0.00,0,weatherlink.com 1.10,2013-02-06 03:36:00,
2013-02-05 22:51:00,27.1,24.0,30.01,West,275,2.0,3.0,89,0.00,,,0.00,0,weatherlink.com 1.10,2013-02-06 03:51:00,
2013-02-05 23:06:00,27.1,24.0,30.01,NW,309,1.0,3.0,89,0.00,,,0.00,0,weatherlink.com 1.10,2013-02-06 04:06:00,
2013-02-05 23:21:00,27.1,24.0,30.01,NNW,334,1.0,3.0,89,0.00,,,0.00,0,weatherlink.com 1.10,2013-02-06 04:21:00,
2013-02-05 23:36:00,27.1,24.0,30.00,NNE,13,2.0,4.0,89,0.00,,,0.00,0,weatherlink.com 1.10,2013-02-06 04:36:00,
2013-02-05 23:51:00,27.6,25.0,30.00,ENE,66,0.0,3.0,90,0.00,,,0.00,0,weatherlink.com 1.10,2013-02-06 04:51:00,